Location: *
(51.5000°N, 0.1100°W)
Time: 19:53:14
(UTC+00:00)

H-2A R/B - Pass Details

Date: 25 May 2024
Orbit: 567 x 637 km, 98.4° (Epoch: 16 June)

Event Time Altitude Azimuth Distance (km) Brightness Sun altitude
Rises 00:54:29 0° 9° (N) 2,954 7.3 -16.4°
Reaches altitude 10° 00:56:49 10° 1° (N) 2,040 5.9 -16.3°
Maximum altitude 01:00:52 36° 295° (WNW) 1,019 3.2 -16.2°
Enters shadow 01:03:27 19° 240° (WSW) 1,510 3.6 -16.1°
